Regional Weather Roundup
Issued by NWS Columbia, SC

Home | Current Version | Previous Version | Text Only | Print | Product List | Glossary On
Versions: 1 2 3 4 5 6 7 8 9 10 11 12 13 14 15 16 17 18 19 20 21 22 23 24 25 26 27 28 29 30 31 32 33 34 35 36 37 38 39 40 41 42 43 44 45 46 47 48 49 50
000
ASUS42 KCAE 240410
RWRCAE
REGIONAL WEATHER ROUNDUP
NATIONAL WEATHER SERVICE COLUMBIA SC
1200 AM EDT MON APR 24 2017

NOTE: "FAIR" INDICATES FEW OR NO CLOUDS BELOW 12,000 FEET WITH NO
SIGNIFICANT WEATHER AND/OR OBSTRUCTIONS TO VISIBILITY.

NOT ALL STATIONS ARE QUALITY CONTROLLED BY THE NATIONAL
WEATHER SERVICE. USE DATA WITH CAUTION...ESPECIALLY
DEWPOINT OBSERVATIONS.

SCZ001>056-GAZ040-063>065-077-240500-
...UPSTATE SOUTH CAROLINA...

CITY           SKY/WX    TMP DP  RH WIND       PRES   REMARKS
ANDERSON       RAIN      51  48  89 NE17G29   29.84F
LIBERTY        RAIN      50  48  94 NE8G17    29.85F
SPARTANBURG    DRIZZLE   50  46  87 NE15      29.89S
CLEMSON        LGT RAIN  53  49  86 NE14G22   29.85F
GREENVILLE     LGT RAIN  50  47  89 NE23G30   29.88F
GREENWOOD      LGT RAIN  53  51  93 N15       29.85F
GREER          RAIN      49  47  93 N14       29.89F FOG
ROCK HILL      RAIN      52  51  97 VRB6G16   29.88F FOG
CHESTER        CLOUDY    52  52 100 N9        29.88F
LAURENS        RAIN      52  52 100 NW12      29.89R


...CENTRAL SOUTH CAROLINA...

CITY           SKY/WX    TMP DP  RH WIND       PRES   REMARKS
COLUMBIA APT   TSTM      61  59  93 NW16G24   29.78R VSB 3/4
COLUMBIA OWENS TSTM      63  62  97 SW14G21   29.82R FOG
MCENTIRE ANGB  TSTM      63  63 100 CALM      29.77F
ORANGEBURG     LGT RAIN  70  67  90 SE7       29.75F
SUMTER SHAW    CLOUDY    63  61  94 NE13      29.77F
NEWBERRY       RAIN      54  54 100 N14G23    29.86F
AIKEN          CLOUDY    59  57  94 N7        29.81F
BARNWELL       RAIN      68  68 100 SE5       29.77F
MANNING        MOCLDY    68  64  88 E16G29    29.79F
LANCASTER      RAIN      54  54 100 NE12      29.86F
WINNSBORO      HVY RAIN  55  55 100 N7        29.81F


...EASTERN AND COASTAL SOUTH CAROLINA...

CITY           SKY/WX    TMP DP  RH WIND       PRES   REMARKS
MYRTLE BEACH   LGT RAIN  67  65  93 E14       29.86S FOG
N MYRTLE BCH   LGT RAIN  65  64  97 NE12      29.85F
CONWAY         CLOUDY    63  63 100 NE9       29.86S
MARION         CLOUDY    59  57  94 E12G18    29.87S FOG
HARTSVILLE     CLOUDY    55  55 100 E14       29.85F
FLORENCE       CLOUDY    60  60 100 E13       29.86S
DARLINGTON     CLOUDY    58  57  97 E13       29.88S FOG
CHARLESTON APT MOCLDY    73  67  81 SE13      29.79F
MOUNT PLEASANT FAIR      73  70  88 SE7       29.80F
WALTERBORO     CLOUDY    72  68  88 SE12      29.76F
BEAUFORT       CLOUDY    76  73  91 S9        29.75F


...EASTERN GEORGIA...

CITY           SKY/WX    TMP DP  RH WIND       PRES   REMARKS
AUGUSTA BUSH F CLOUDY    65  62  90 N8        29.77S
AUGUSTA DANIEL CLOUDY    62  58  86 N13       29.78F
THOMSON        CLOUDY    59  57  95 SE8       29.84S
WASHINGTON     HVY RAIN  55  55 100 CALM      29.82R
CLAXTON        CLOUDY   N/A N/A N/A CALM      29.75F
SYLVANIA       LGT RAIN  70  66  88 CALM      29.76F
STATESBORO     CLOUDY    69  69 100 CALM      29.75F
SAVANNAH       RAIN      73  65  75 S20G32    29.76R


...SOUTHERN NORTH CAROLINA...

CITY           SKY/WX    TMP DP  RH WIND       PRES   REMARKS
CHARLOTTE      HVY RAIN  52  49  89 N9        29.91F FOG
MONROE         RAIN      53  51  93 NE13      29.88S FOG
WADESBORO      CLOUDY    55  53  93 NE9       29.90R FOG
RUTHERFORDTON  RAIN      48  48 100 N7G17     29.94F
ASHEVILLE      LGT RAIN  47  44  90 SW3       29.93S

$$



USA.gov is the U.S. government's official web portal to all federal, state and local government web resources and services.